Simultaneous Nadir Overpasses (SNOs) Predictions

Prediction of SNOs between AQUA and METOP-B Satellite Orbit:

Table of predicted SNOs for the next 14.0 days since TLE Epoch: 12/21/2018
Index Date (AQUA) Time (AQUA) Lat,Lon (AQUA) SZA (AQUA ) Date (METOP-B) Time (METOP-B) Lat,Lon (METOP-B) SZA (METOP-B ) Distance(km) Time Diff (sec)
1 12/22/2018 01:30:16 -73.85, -28.42 82.74 12/22/2018 01:29:17 -73.83, -28.44 82.75 2.44 59
2 12/22/2018 02:19:45 73.91, 139.08 97.33 12/22/2018 02:19:55 73.93, 139.12 97.34 1.99 10
3 12/22/2018 03:09:19 -74.36, -54.31 82.20 12/22/2018 03:10:28 -74.35, -52.48 82.26 54.95 69
4 12/24/2018 21:04:32 -73.85, 38.02 82.77 12/24/2018 21:03:42 -73.83, 37.96 82.78 3.11 50
5 12/24/2018 21:54:01 73.91,-154.47 97.30 12/24/2018 21:54:20 73.92,-154.49 97.31 1.11 19
6 12/27/2018 16:38:48 -73.85, 104.45 82.85 12/27/2018 16:38:06 -73.87, 104.47 82.82 2.36 42
7 12/27/2018 17:28:17 73.91, -88.04 97.22 12/27/2018 17:28:45 73.91, -88.11 97.21 2.12 28
8 12/30/2018 12:13:03 -73.86, 170.88 82.99 12/30/2018 12:12:30 -73.87, 170.86 82.98 0.93 33
9 12/30/2018 13:02:32 73.92, -21.62 97.07 12/30/2018 13:03:08 73.95, -21.61 97.10 2.88 36
10 01/02/2019 07:47:19 -73.87,-122.71 83.19 01/02/2019 07:46:55 -73.86,-122.76 83.20 2.08 24
11 01/02/2019 08:36:48 73.93, 44.79 96.88 01/02/2019 08:37:33 73.93, 44.76 96.87 1.00 45




NCC Satellite Simultaneous Nadir Overpasses (SNOs) Prediction Service
